Marshfield, WI

4:25 AM CDT on September 26, 2017 (GMT -0500)
Marshfield Municipal

Weather History for KMFI - January, 2014

Change the Weather History Date:

Saturday, January 4, 2014

  Actual Average Record
Temperature  
Mean Temperature 14 °F -  
Max Temperature 28 °F 22 °F 45 °F (2007)
Min Temperature 1 °F 3 °F -28 °F (1924)
Degree Days  
Heating Degree Days 50    
Moisture  
Dew Point 12 °F    
Average Humidity 73    
Maximum Humidity 88    
Minimum Humidity 62    
Precipitation  
Precipitation 0.00 in - - ()
Sea Level Pressure  
Sea Level Pressure 29.78 in    
Wind  
Wind Speed 14 mph (West)    
Max Wind Speed 21 mph    
Max Gust Speed 29 mph    
Visibility 8 miles    
Events Snow    
Averages and records for this station are not official NWS values.
T = Trace of Precipitation, MM = Missing Value Source: NWS Daily Summary

Daily Weather History Graph

Daily Weather History Graph

Search for Another Location

Airport or City:

Trip Planner

Search our weather history database for the weather conditions in past years. The results will help you decide how hot, cold, wet, or windy it might be!

Date:

Astronomy

Jan. 04, 2014 Rise Set
Actual Time 7:37 AM CST 4:34 PM CST
Civil Twilight 7:04 AM CST 5:07 PM CST
Nautical Twilight 6:27 AM CST 5:44 PM CST
Astronomical Twilight 5:52 AM CST 6:19 PM CST
Moon 9:33 AM CST (1/4) 9:05 PM CST (1/4)
Length of Visible Light 10h 02m
Length of Day
8h 56m
Waxing Crescent, 15% of the Moon is Illuminated
Jan 4
Waxing Crescent
Jan 7
First Quarter
Jan 15
Full
Jan 23
Last Quarter
Jan 30
New

Hourly Weather History & Observations

Time (CST) Temp. Windchill Dew Point Humidity Pressure Visibility Wind Dir Wind Speed Gust Speed Precip Events Conditions
12:54 AM 19.9 °F 4.8 °F 10.9 °F 68% 29.60 in 10.0 mi SSW 18.4 mph - N/A   Scattered Clouds
1:54 AM 21.0 °F 9.3 °F 12.9 °F 71% 29.58 in 10.0 mi SSW 11.5 mph - N/A   Overcast
2:01 AM 21.0 °F 7.6 °F 12.9 °F 71% 29.50 in 10.0 mi SSW 15.0 mph - N/A   Overcast
2:54 AM 21.9 °F 9.8 °F 14.0 °F 72% 29.55 in 10.0 mi South 12.7 mph - N/A   Overcast
3:24 AM 21.9 °F 9.8 °F 15.1 °F 75% 29.47 in 5.0 mi SSW 12.7 mph - 0.00 in Snow Light Snow
3:42 AM 23.0 °F 10.1 °F 15.1 °F 72% 29.48 in 10.0 mi SSW 15.0 mph - 0.00 in   Overcast
3:54 AM 23.0 °F 11.1 °F 15.1 °F 72% 29.56 in 10.0 mi SW 12.7 mph - 0.00 in   Overcast
4:54 AM 24.1 °F 11.5 °F 17.1 °F 75% 29.56 in 10.0 mi SSW 15.0 mph - N/A   Overcast
5:54 AM 25.0 °F 14.2 °F 18.0 °F 75% 29.59 in 10.0 mi SW 11.5 mph - N/A   Overcast
6:54 AM 26.1 °F 16.2 °F 19.0 °F 75% 29.61 in 10.0 mi SW 10.4 mph - N/A   Overcast
7:02 AM 26.1 °F 15.0 °F 19.9 °F 78% 29.56 in 10.0 mi SW 12.7 mph - N/A   Overcast
7:54 AM 27.0 °F 19.5 °F 21.0 °F 78% 29.65 in 7.0 mi WSW 6.9 mph - N/A   Overcast
8:40 AM 28.0 °F 18.6 °F 24.1 °F 85% 29.62 in 4.0 mi West 10.4 mph - N/A   Overcast
8:54 AM 28.0 °F 19.3 °F 25.0 °F 88% 29.68 in 5.0 mi West 9.2 mph - N/A   Overcast
9:54 AM 28.9 °F 17.3 °F 25.0 °F 85% 29.75 in 2.5 mi NW 16.1 mph - N/A   Overcast
10:03 AM 28.0 °F 15.3 °F 24.1 °F 85% 29.69 in 4.0 mi NW 18.4 mph - N/A   Overcast
10:14 AM 28.0 °F 16.1 °F 23.0 °F 81% 29.70 in 5.0 mi NW 16.1 mph - N/A   Haze
10:54 AM 26.1 °F 12.0 °F 21.0 °F 81% 29.78 in 5.0 mi NW 20.7 mph - N/A   Haze
11:45 AM 23.0 °F 8.0 °F 16.0 °F 74% 29.75 in 6.0 mi NW 20.7 mph 28.8 mph N/A   Haze
11:54 AM 23.0 °F 8.3 °F 16.0 °F 74% 29.82 in 6.0 mi NNW 19.6 mph - N/A   Haze
12:54 PM 19.9 °F 4.8 °F 12.9 °F 74% 29.83 in 7.0 mi NNW 18.4 mph - N/A   Overcast
1:30 PM 19.0 °F 3.2 °F 9.0 °F 65% 29.79 in 10.0 mi NW 19.6 mph - N/A   Scattered Clouds
1:54 PM 18.0 °F 2.2 °F 9.0 °F 68% 29.87 in 10.0 mi NW 18.4 mph - N/A   Clear
2:54 PM 16.0 °F 0.6 °F 5.0 °F 62% 29.95 in 10.0 mi NW 16.1 mph - N/A   Clear
3:54 PM 14.0 °F 0.5 °F 3.9 °F 64% 29.98 in 10.0 mi NW 11.5 mph - N/A   Clear
4:54 PM 12.0 °F 1.5 °F 1.9 °F 64% 30.00 in 10.0 mi NW 6.9 mph - N/A   Clear
5:54 PM 10.9 °F -1.8 °F 1.9 °F 67% 30.03 in 10.0 mi NW 9.2 mph - N/A   Clear
6:54 PM 10.0 °F -3.7 °F 1.0 °F 67% 30.06 in 10.0 mi NW 10.4 mph - N/A   Clear
7:54 PM 8.1 °F -3.2 °F -0.9 °F 67% 30.10 in 10.0 mi NW 6.9 mph - N/A   Clear
8:54 PM 6.1 °F -6.8 °F -2.0 °F 69% 30.12 in 10.0 mi NW 8.1 mph - N/A   Clear
9:54 PM 1.9 °F -12.9 °F -5.1 °F 72% 30.13 in 10.0 mi NW 9.2 mph - N/A   Clear
10:54 PM 5.0 °F -8.1 °F -2.9 °F 70% 30.15 in 10.0 mi NW 8.1 mph - N/A   Clear
11:54 PM 5.0 °F -9.1 °F -4.0 °F 66% 30.17 in 10.0 mi NW 9.2 mph - N/A   Clear